« Back
NWS Peachtree City, Ga » Text Product » GA Regional Weather Roundup


Printer-friendly Version
Current Version              Previous Versions:   1  2  3  4  5  6  7  8  9  

Regional Weather Roundup

209
ASUS42 KFFC 280003
RWRGA
WEATHER ROUNDUP FOR GEORGIA
NATIONAL WEATHER SERVICE PEACHTREE CITY GA
800 PM EDT SAT AUG 27 2016

NOTE: "FAIR" INDICATES FEW OR NO CLOUDS BELOW 12,000 FEET WITH NO
SIGNIFICANT WEATHER AND/OR OBSTRUCTIONS TO VISIBILITY.

* = USE WITH CAUTION. THE STATIONS MARKED WITH AN ASTERISK MAY NOT
REPORT WEATHER SUCH AS PRECIPITATION, FOG, OR THUNDER AND ARE NOT
QUALITY CONTROLLED BY NWS.

THE REMARK "TC" DENOTES TEMPERATURE READING IN DEGREES CELSIUS.

GAZ001>058-280100-
NORTH GEORGIA

CITY           SKY/WX    TMP DP  RH WIND       PRES   REMARKS
ATLANTA        PTCLDY    88  68  51 E9        30.06R HX  91
6HR MIN TEMP:  88; 6HR MAX TEMP:  92;

ATHENS         CLEAR     85  75  72 NE3       30.06R HX  93
6HR MIN TEMP:  85; 6HR MAX TEMP:  92;

CHAMBLEE       CLEAR     85  71  63 CALM      30.07R HX  90
6HR MIN TEMP:  81; 6HR MAX TEMP:  92; 6HR PCP:  0.01;

PEACHTREE CITY CLEAR     88  68  51 E3        30.04R HX  91
6HR MIN TEMP:  88; 6HR MAX TEMP:  93;

ROME           CLEAR     87  71  58 E3        30.04R HX  93
6HR MIN TEMP:  87; 6HR MAX TEMP:  92; 6HR PCP: TRACE;

WEST ATLANTA   PTCLDY    87  69  54 NE6       30.05R HX  91
6HR MIN TEMP:  87; 6HR MAX TEMP:  93;

GAINESVILLE    CLEAR     85  70  60 NE6       30.12R
6HR MIN TEMP:  85; 6HR MAX TEMP:  91;

CARTERSVILLE   CLEAR     88  68  51 CALM      30.06R HX  91
6HR MIN TEMP:  88; 6HR MAX TEMP:  94;



CITY           SKY/WX    TMP DP  RH WIND       PRES   REMARKS
DALTON*        CLEAR     86  68  54 E3        30.07R
LAWRENCEVILLE* CLEAR     86  72  62 NE7       30.07R HX  92
MARIETTA       PTCLDY    86  69  57 NE3       30.07R HX  90
KENNESAW*      CLEAR     88  70  55 E6        30.02R HX  92
CANTON*        CLEAR     90  59  35 CALM      30.11R
BLAIRSVILLE*     N/A    N/A N/A N/A MISG      30.16R
$$

GAZ059>098-102>109-280100-
CENTRAL GEORGIA

CITY           SKY/WX    TMP DP  RH WIND       PRES   REMARKS
AUGUSTA-BUSH   CLEAR     85  72  65 SE3       30.02R HX  91
6HR MIN TEMP:  85; 6HR MAX TEMP:  98;

AUGUSTA-DANIEL CLEAR     91  68  46 E7        30.05R HX  95
6HR MIN TEMP:  91; 6HR MAX TEMP:  98;

COLUMBUS       CLEAR     89  61  38 SE3       29.99R
6HR MIN TEMP:  89; 6HR MAX TEMP:  94;

MACON          CLEAR     88  60  38 E5        30.01R
6HR MIN TEMP:  88; 6HR MAX TEMP:  98;

ROBINS AFB     CLEAR     87  65  47 E5        30.00R


CITY           SKY/WX    TMP DP  RH WIND       PRES   REMARKS
LAGRANGE*      CLEAR     89  70  51 CALM      30.02R HX  94
MILLEDGEVILLE* CLEAR     88  66  48 CALM      30.03R HX  90
$$

GAZ099>101-110>166-280100-
SOUTH GEORGIA

CITY           SKY/WX    TMP DP  RH WIND       PRES   REMARKS
SAVANNAH       MOCLDY    81  73  76 E7        30.04R
6HR MIN TEMP:  81; 6HR MAX TEMP:  93; 6HR PCP: TRACE;

VALDOSTA       CLEAR     85  75  72 E8        29.98R HX  93
6HR MIN TEMP:  85; 6HR MAX TEMP:  91; 6HR PCP: TRACE;

ALMA           CLEAR     84  71  65 E7        30.01R
6HR MIN TEMP:  84; 6HR MAX TEMP:  93;

ST SIMONS      CLOUDY    82  75  79 E10       30.01R
6HR MIN TEMP:  79; 6HR MAX TEMP:  89; 6HR PCP:  0.21;

FT STEWART     PTCLDY    83  73  71 E5        30.00R
ALBANY         CLOUDY    88  68  51 E5        30.00R HX  91
HUNTER AFB     MOCLDY    81  78  90 NE8       30.01R
MOODY AFB      CLEAR     84  71  65 E8        29.98R
BRUNSWICK      CLOUDY    81  79  94 E6        30.02R


CITY           SKY/WX    TMP DP  RH WIND       PRES   REMARKS
BAINBRIDGE*    CLOUDY    90  73  58 CALM      29.97S HX  98
MOULTRIE*      PTCLDY    86  72  62 CALM      29.99R HX  92
VIDALIA*       CLEAR     86  72  62 SE6       30.02R HX  92
WAYCROSS*        N/A     85  76  74 SE7       30.01R HX  95
DOUGLAS*       PTCLDY    82  72  69 SE3       30.02R
$$




USA.gov is the U.S. government's official web portal to all federal, state and local government web resources and services.